Home > Weather > Douai > Past weeks

Flag for France Past Weather in Douai, Nord-Pas-de-Calais, France — Yesterday and Last 2 Weeks

Now
63 °F

Overcast.


Feels Like: 63 °F
Forecast: 53 / 65 °F
Wind: 7 mph from Southwest

Location: Lille Airport

Current Time: Jul 1, 2016 at 3:02:36 AM

Latest Report: Jul 1, 2016 at 2:30 AM


Visibility: N/A

Pressure: 29.89 "Hg

Humidity: 94%

Dew Point: 61 °F

Location of DouaiLocation

Past Weather in Douai — Graph

°F

Douai Temperature Yesterday

Maximum temperature yesterday: 68 °F (at 5:00 PM)
Minimum temperature yesterday: 57 °F (at 7:30 AM)
Average temperature yesterday: 62 °F

High & Low Weather Summary for the Past Weeks

 TemperatureHumidityPressure
High84 °F (Jun 23, 4:30 PM)100% (Jun 16, 3:30 AM)30.30 "Hg (Jun 16, 3:30 AM)
Low50 °F (Jun 16, 3:30 AM)46% (Jun 25, 5:00 PM)29.56 "Hg (Jun 16, 2:00 AM)
Average62 °F82%29.99 "Hg
* Reported Jun 16 2:00 AM — Jul 1 2:00 AM, Douai, Weather by CustomWeather, © 2016

Note: Actual official high and low records may vary slightly from our data, if they occured in-between our weather recording intervals... More about our weather records

Advertising

Douai Weather History for the Previous 24 Hours

Scroll right to see more
 ConditionsComfort  
Time TempWeatherWind HumidityBarometerVisibility
2:00 AM
Fri, Jul 1
63 °FDrizzle. Mostly cloudy.7 mph88%29.89 "HgN/A
1:30 AM63 °FPartly cloudy.5 mph88%29.89 "HgN/A
1:00 AM63 °FMostly cloudy.5 mph83%29.92 "HgN/A
12:30 AM63 °FMostly cloudy.7 mph83%29.92 "HgN/A
12:00 AM61 °FMostly cloudy.6 mph88%29.92 "HgN/A
11:30 PM
Thu, Jun 30
61 °FOvercast.7 mph88%29.92 "HgN/A
11:00 PM61 °FPartly sunny.6 mph88%29.92 "HgN/A
10:30 PM63 °FBroken clouds.7 mph83%29.92 "HgN/A
10:00 PM63 °FPartly sunny.9 mph83%29.92 "HgN/A
9:30 PM64 °FMostly cloudy.7 mph78%29.92 "HgN/A
9:00 PM66 °FPartly sunny.14 mph73%29.92 "HgN/A
8:30 PM66 °FMostly cloudy.14 mph73%29.92 "HgN/A
8:00 PM66 °FPartly sunny.16 mph73%29.89 "HgN/A
7:30 PM68 °FPartly sunny.12 mph69%29.89 "HgN/A
7:00 PM68 °FPartly sunny.13 mph69%29.89 "HgN/A
6:30 PM68 °FPartly sunny.13 mph69%29.89 "HgN/A
6:00 PM68 °FBroken clouds.17 mph73%29.89 "HgN/A
5:30 PM68 °FBroken clouds.14 mph73%29.89 "HgN/A
5:00 PM68 °FBroken clouds.15 mph73%29.89 "HgN/A
4:30 PM66 °FBroken clouds.13 mph83%29.89 "HgN/A
4:00 PM66 °FPartly sunny.14 mph88%29.89 "HgN/A
3:30 PM64 °FBroken clouds.10 mph88%29.89 "HgN/A
3:00 PM63 °FLight rain. Mostly cloudy.9 mph94%29.89 "Hg4 mi
2:30 PM64 °FMostly cloudy.12 mph88%29.89 "HgN/A
2:00 PM64 °FMostly cloudy.14 mph88%29.89 "HgN/A
1:30 PM64 °FOvercast.14 mph88%29.89 "HgN/A
1:00 PM63 °FOvercast.10 mph94%29.89 "HgN/A
12:30 PM64 °FOvercast.13 mph88%29.89 "HgN/A
12:00 PM63 °FOvercast.12 mph94%29.86 "HgN/A
11:30 AM61 °FMostly cloudy.10 mph94%29.86 "HgN/A
11:00 AM61 °FLight rain. Mostly cloudy.10 mph94%29.86 "Hg4 mi
10:30 AM61 °FDrizzle. Mostly cloudy.10 mph94%29.86 "HgN/A
10:00 AM61 °FPartly sunny.10 mph94%29.86 "HgN/A
9:30 AM61 °FBroken clouds.9 mph94%29.86 "HgN/A
9:00 AM59 °FMostly cloudy.7 mph94%29.86 "HgN/A
8:30 AM59 °FCloudy.8 mph94%29.86 "HgN/A
8:00 AM59 °FMostly cloudy.7 mph94%29.86 "HgN/A
7:30 AM57 °FBroken clouds.7 mph94%29.86 "HgN/A
7:00 AM59 °FRain. More clouds than sun.8 mph88%29.86 "HgN/A
6:30 AM59 °FOvercast.7 mph88%29.86 "HgN/A
6:00 AM59 °FPassing clouds.8 mph88%29.86 "HgN/A
5:30 AM59 °FPassing clouds.8 mph88%29.86 "HgN/A
5:00 AM59 °FMostly cloudy.8 mph88%29.83 "HgN/A
4:30 AM59 °FLight rain. Mostly cloudy.9 mph88%29.83 "HgN/A
4:00 AM59 °FLight rain. Overcast.8 mph88%29.83 "HgN/A
3:30 AM59 °FOvercast.10 mph88%29.83 "HgN/A
3:00 AM59 °FMostly cloudy.10 mph88%29.83 "HgN/A
Weather by CustomWeather, © 2016

See weather overviewHow to use our weather pages